This is the latest recevied weather packets stored in our database for station/object OK2ILA-10. If no packets are shown the sender has not sent any weather packets the latest 10 day(s).
| Time | Temp. | Humidity | Pressure | Rain* | Wind** | Luminosity | Snow |
|---|---|---|---|---|---|---|---|
| 1788613330 | 22.22° C | 45% | 1018.6 hPa | - | - | - | - |
| 1788613326 | 22.22° C | 45% | 1018.6 hPa | - | - | - | - |
| 1788612730 | 22.22° C | 45% | 1018.8 hPa | - | - | - | - |
| 1788612726 | 22.22° C | 45% | 1018.8 hPa | - | - | - | - |
| 1788612129 | 21.67° C | 46% | 1019 hPa | - | - | - | - |
| 1788612125 | 21.67° C | 46% | 1019 hPa | - | - | - | - |
| 1788611529 | 21.67° C | 47% | 1019.1 hPa | - | - | - | - |
| 1788611525 | 21.67° C | 47% | 1019.1 hPa | - | - | - | - |
| 1788610925 | 20.56° C | 51% | 1019 hPa | - | - | - | - |
| 1788610329 | 20.56° C | 51% | 1019.3 hPa | - | - | - | - |
| 1788610325 | 20.56° C | 51% | 1019.3 hPa | - | - | - | - |
| 1788609729 | 21.11° C | 50% | 1019.2 hPa | - | - | - | - |
| 1788609725 | 21.11° C | 50% | 1019.2 hPa | - | - | - | - |
| 1788609128 | 21.11° C | 49% | 1019.1 hPa | - | - | - | - |
| 1788609124 | 21.11° C | 49% | 1019.1 hPa | - | - | - | - |
| 1788608528 | 21.67° C | 49% | 1019.1 hPa | - | - | - | - |
| 1788608524 | 21.67° C | 49% | 1019.1 hPa | - | - | - | - |
| 1788607928 | 21.11° C | 49% | 1019.2 hPa | - | - | - | - |
| 1788607924 | 21.11° C | 49% | 1019.2 hPa | - | - | - | - |
| 1788607324 | 21.11° C | 49% | 1019.2 hPa | - | - | - | - |
| 1788606728 | 20° C | 51% | 1019.3 hPa | - | - | - | - |
| 1788606724 | 20° C | 51% | 1019.3 hPa | - | - | - | - |
| 1788606127 | 21.67° C | 48% | 1019.2 hPa | - | - | - | - |
| 1788606123 | 21.67° C | 48% | 1019.2 hPa | - | - | - | - |
| 1788605527 | 21.67° C | 48% | 1019.2 hPa | - | - | - | - |
* Rain since midnight (hover to see other rain measurements)
** Current wind speed in m/s (hover to see current wind gust speed)